Stündliche Wetter Center Point

Heute, 27 Januar, Mittwoch

Zeit Temperatur Niederschläge Wind Luftdruck Luftfeuchtigkeit
00:00 +14°C° 0 mm 1 m/S 738 mmHg 66%
01:00 +13°C° 1.2 mm 2 m/S 738 mmHg 74%
02:00 +13°C° 1.2 mm 2 m/S 738 mmHg 83%
03:00 +12°C° 1.2 mm 2 m/S 738 mmHg 91%
04:00 +12°C° 1.9 mm 2 m/S 739 mmHg 91%
05:00 +12°C° 1.9 mm 2 m/S 739 mmHg 91%
06:00 +10°C° 1.9 mm 2 m/S 739 mmHg 91%
07:00 +12°C° 0.3 mm 2 m/S 739 mmHg 89%
08:00 +11°C° 0.3 mm 3 m/S 739 mmHg 87%
09:00 +11°C° 0.3 mm 3 m/S 739 mmHg 85%
10:00 +12°C° 0 mm 3 m/S 739 mmHg 82%
11:00 +13°C° 0 mm 3 m/S 739 mmHg 80%
12:00 +14°C° 0 mm 3 m/S 739 mmHg 77%
13:00 +13°C° 0.1 mm 3 m/S 739 mmHg 80%
14:00 +13°C° 0.1 mm 4 m/S 739 mmHg 83%
15:00 +12°C° 0.1 mm 5 m/S 739 mmHg 86%
16:00 +9°C° 0 mm 5 m/S 740 mmHg 84%
17:00 +7°C° 0 mm 6 m/S 741 mmHg 81%
18:00 +5°C° 0 mm 6 m/S 743 mmHg 79%
19:00 +4°C° 0 mm 6 m/S 743 mmHg 77%
20:00 +3°C° 0 mm 6 m/S 744 mmHg 75%
21:00 +3°C° 0 mm 5 m/S 745 mmHg 74%
22:00 +2°C° 0 mm 5 m/S 745 mmHg 73%
23:00 +1°C° 0 mm 5 m/S 746 mmHg 73%

Morgen, 28 Januar, Donnerstag

Zeit Temperatur Niederschläge Wind Luftdruck Luftfeuchtigkeit
00:00 0°C° 0 mm 5 m/S 746 mmHg 72%
01:00 0°C° 0 mm 5 m/S 747 mmHg 71%
02:00 -1°C° 0 mm 5 m/S 747 mmHg 71%
03:00 -1°C° 0 mm 5 m/S 747 mmHg 70%
04:00 -1°C° 0 mm 5 m/S 748 mmHg 71%
05:00 -2°C° 0 mm 5 m/S 749 mmHg 73%
06:00 -2°C° 0 mm 4 m/S 749 mmHg 74%
07:00 -2°C° 0 mm 4 m/S 750 mmHg 72%
08:00 -1°C° 0 mm 4 m/S 750 mmHg 70%
09:00 -1°C° 0 mm 4 m/S 751 mmHg 68%
10:00 +1°C° 0 mm 4 m/S 751 mmHg 62%
11:00 +3°C° 0 mm 4 m/S 751 mmHg 55%
12:00 +5°C° 0 mm 4 m/S 751 mmHg 49%
13:00 +5°C° 0 mm 4 m/S 750 mmHg 48%
14:00 +5°C° 0 mm 4 m/S 750 mmHg 46%
15:00 +5°C° 0 mm 4 m/S 750 mmHg 45%
16:00 +4°C° 0 mm 3 m/S 750 mmHg 51%
17:00 +2°C° 0 mm 3 m/S 750 mmHg 57%
18:00 +1°C° 0 mm 3 m/S 750 mmHg 63%
19:00 0°C° 0 mm 3 m/S 750 mmHg 65%
20:00 -1°C° 0 mm 2 m/S 750 mmHg 68%
21:00 -1°C° 0 mm 2 m/S 750 mmHg 70%
22:00 -2°C° 0 mm 2 m/S 750 mmHg 71%
23:00 -2°C° 0 mm 2 m/S 750 mmHg 72%

übermorgen, 29 Januar, Freitag

Zeit Temperatur Niederschläge Wind Luftdruck Luftfeuchtigkeit
00:00 0°C° 0 mm 1 m/S 749 mmHg 73%
01:00 0°C° 0 mm 1 m/S 749 mmHg 72%
02:00 0°C° 0 mm 1 m/S 749 mmHg 71%
03:00 0°C° 0 mm 1 m/S 748 mmHg 71%
04:00 0°C° 0 mm 1 m/S 748 mmHg 70%
05:00 -1°C° 0 mm 1 m/S 748 mmHg 70%
06:00 -1°C° 0 mm 1 m/S 748 mmHg 70%
07:00 +1°C° 0 mm 1 m/S 748 mmHg 62%
08:00 +3°C° 0 mm 1 m/S 749 mmHg 54%
09:00 +4°C° 0 mm 1 m/S 749 mmHg 46%
10:00 +7°C° 0 mm 1 m/S 748 mmHg 42%
11:00 +9°C° 0 mm 1 m/S 748 mmHg 38%
12:00 +11°C° 0 mm 0 m/S 748 mmHg 34%
13:00 +11°C° 0 mm 0 m/S 747 mmHg 34%
14:00 +11°C° 0 mm 0 m/S 746 mmHg 34%
15:00 +11°C° 0 mm 0 m/S 746 mmHg 34%
16:00 +9°C° 0 mm 0 m/S 746 mmHg 40%
17:00 +7°C° 0 mm 0 m/S 745 mmHg 46%
18:00 +5°C° 0 mm 0 m/S 745 mmHg 52%
19:00 +5°C° 0 mm 0 m/S 745 mmHg 54%
20:00 +5°C° 0 mm 1 m/S 745 mmHg 56%
21:00 +5°C° 0 mm 1 m/S 745 mmHg 58%
22:00 +5°C° 0 mm 1 m/S 745 mmHg 59%
23:00 +4°C° 0 mm 1 m/S 744 mmHg 60%

30 Januar, Samstag

Zeit Temperatur Niederschläge Wind Luftdruck Luftfeuchtigkeit
00:00 +4°C° 0 mm 1 m/S 744 mmHg 62%
01:00 +4°C° 0 mm 1 m/S 744 mmHg 63%
02:00 +4°C° 0 mm 1 m/S 744 mmHg 65%
03:00 +4°C° 0 mm 1 m/S 744 mmHg 67%
04:00 +3°C° 0 mm 2 m/S 743 mmHg 67%
05:00 +3°C° 0 mm 2 m/S 743 mmHg 67%
06:00 +2°C° 0 mm 3 m/S 743 mmHg 68%
07:00 +3°C° 0 mm 3 m/S 743 mmHg 65%
08:00 +4°C° 0 mm 4 m/S 742 mmHg 62%
09:00 +5°C° 0 mm 4 m/S 742 mmHg 59%
10:00 +6°C° 0 mm 4 m/S 742 mmHg 58%
11:00 +7°C° 0 mm 4 m/S 742 mmHg 57%
12:00 +10°C° 0 mm 4 m/S 741 mmHg 56%
13:00 +10°C° 0 mm 5 m/S 740 mmHg 58%
14:00 +12°C° 0 mm 5 m/S 739 mmHg 61%
15:00 +13°C° 0 mm 6 m/S 738 mmHg 63%
16:00 +13°C° 0 mm 6 m/S 737 mmHg 69%
17:00 +11°C° 0 mm 7 m/S 737 mmHg 75%
18:00 +11°C° 0 mm 8 m/S 736 mmHg 81%
19:00 +11°C° 0.9 mm 7 m/S 736 mmHg 85%
20:00 +12°C° 0.9 mm 7 m/S 735 mmHg 88%
21:00 +13°C° 0.9 mm 6 m/S 735 mmHg 92%
22:00 +14°C° 0.8 mm 6 m/S 735 mmHg 92%
23:00 +14°C° 0.8 mm 6 m/S 735 mmHg 92%

31 Januar, Sonntag

Zeit Temperatur Niederschläge Wind Luftdruck Luftfeuchtigkeit
00:00 +15°C° 0.8 mm 5 m/S 735 mmHg 92%
01:00 +14°C° 0.6 mm 5 m/S 734 mmHg 93%
02:00 +14°C° 0.6 mm 4 m/S 734 mmHg 95%
03:00 +14°C° 0.6 mm 3 m/S 734 mmHg 97%
04:00 +13°C° 0 mm 3 m/S 734 mmHg 97%
05:00 +13°C° 0 mm 3 m/S 734 mmHg 97%
06:00 +12°C° 0 mm 3 m/S 734 mmHg 97%
07:00 +13°C° 0 mm 3 m/S 734 mmHg 92%
08:00 +13°C° 0 mm 4 m/S 735 mmHg 88%
09:00 +13°C° 0 mm 4 m/S 735 mmHg 84%
10:00 +13°C° 0 mm 4 m/S 735 mmHg 78%
11:00 +14°C° 0 mm 4 m/S 735 mmHg 73%
12:00 +14°C° 0 mm 4 m/S 735 mmHg 68%
13:00 +13°C° 0 mm 4 m/S 735 mmHg 70%
14:00 +12°C° 0 mm 4 m/S 736 mmHg 73%
15:00 +10°C° 0 mm 5 m/S 736 mmHg 75%
16:00 +10°C° 0 mm 4 m/S 736 mmHg 75%
17:00 +8°C° 0 mm 4 m/S 737 mmHg 75%
18:00 +9°C° 0 mm 3 m/S 738 mmHg 75%
19:00 +7°C° 0.1 mm 4 m/S 738 mmHg 77%
20:00 +7°C° 0.1 mm 4 m/S 738 mmHg 79%
21:00 +7°C° 0.1 mm 4 m/S 739 mmHg 80%
22:00 +6°C° 0 mm 4 m/S 739 mmHg 78%
23:00 +5°C° 0 mm 5 m/S 739 mmHg 75%

1 Februar, Montag

Zeit Temperatur Niederschläge Wind Luftdruck Luftfeuchtigkeit
00:00 +3°C° 0 mm 5 m/S 739 mmHg 72%
01:00 +2°C° 0 mm 5 m/S 739 mmHg 72%
02:00 +2°C° 0 mm 5 m/S 739 mmHg 73%
03:00 +1°C° 0 mm 4 m/S 739 mmHg 74%
04:00 +1°C° 0 mm 4 m/S 740 mmHg 73%
05:00 +1°C° 0 mm 4 m/S 740 mmHg 73%
06:00 +1°C° 0 mm 4 m/S 740 mmHg 72%
07:00 +1°C° 0 mm 4 m/S 741 mmHg 71%
08:00 +1°C° 0 mm 5 m/S 741 mmHg 70%
09:00 +1°C° 0 mm 5 m/S 742 mmHg 69%
10:00 +2°C° 0 mm 5 m/S 741 mmHg 67%
11:00 +2°C° 0 mm 5 m/S 741 mmHg 65%
12:00 +3°C° 0 mm 5 m/S 741 mmHg 64%
13:00 +3°C° 0 mm 5 m/S 741 mmHg 61%
14:00 +5°C° 0 mm 5 m/S 741 mmHg 59%
15:00 +6°C° 0 mm 5 m/S 741 mmHg 56%
16:00 +5°C° 0 mm 4 m/S 741 mmHg 62%
17:00 +3°C° 0 mm 4 m/S 741 mmHg 67%
18:00 +2°C° 0 mm 3 m/S 741 mmHg 73%
19:00 +1°C° 0 mm 3 m/S 741 mmHg 75%
20:00 +1°C° 0 mm 3 m/S 742 mmHg 77%
21:00 0°C° 0 mm 3 m/S 742 mmHg 79%
22:00 -1°C° 0 mm 3 m/S 742 mmHg 80%
23:00 -1°C° 0 mm 2 m/S 742 mmHg 82%
Mehr zeigen

Wir brauchen deine Erlaubnis

Meteoprog und unser Service Anbieter werden persönliche Daten aufbewahren, so wie Cookies, Geräte Bezeichnung oder ähnliche Technologien von deinem Gerät und Prozess, so wie Persönliche Daten Inhalte und Werbungen, genauso wie social Media und den Verkehr zu analysieren.

  • Aufbewahrung und/oder Zugang zu deiner Geräte Informationen.

    Cookies, Geräte Bezeichnung oder andere Informationen, können aufbewahrt oder Zugang zu deinem Gerät erhalten, für den Grund, der oben angegeben wird.

  • Personalisierte Werbung und Inhalte, Messungen, Einblick in das Publikum und Produkt Entwicklung.

    Werbungen und Inhalte können personalisiert werden, basierend auf ein Profil. Mehr Daten können besser personalisierte Werbungen und Inhalte hinzufügen. Werbung und Inhalte können gezeigt und gemessen werden. Einblicke über das Publikum, welche die Werbung gesehen haben und den Inhalt, können abgeleitet werden. So wie Daten können genutzt werden, um es zu verbessern oder die Benutzer Erfahrung zu verbessern das System und die Software.

Wenn du “Ich stimme zu” klickst, erlaubst du uns, die Cookies zu benutzen die Geräte Bezeichnung, den Web oder ähnliche Technologien zu benutzen. Deine Settings, können in deinem Gerät bei deinem Browser geändert werden.

Für den bestimmten Zweck, berechtigten Interessen beruhen darauf, mehr als auf den Inhalt. Du kannst mehr darüber in unseren Privaten und Cookie Politik lesen.